Location: The Saddle
(36.8333°N, 80.3417°W)
Time: 03:34:30
(UTC-04:00)

Tiros 1 - Pass Details

Date: 27 January 2022
Orbit: 630 x 663 km, 48.4° (Epoch: 29 May)

Event Time Altitude Azimuth Distance (km) Brightness Sun altitude
Exits shadow 06:19:38 12° 239° (WSW) 1,936 9.2 -13.7°
Maximum altitude 06:20:10 12° 232° (SW) 1,921 9.2 -13.6°
Drops below altitude 10° 06:21:48 10° 212° (SSW) 2,027 9.5 -13.3°
Sets 06:25:38 0° 180° (S) 2,921 10.7 -12.5°
